Location: Bremen
(53.0793°N, 8.8017°E)
Time: 00:10:06
(UTC+02:00)

Altair - Pass Details

Date: 21 April 2024
Orbit: 1501 x 1682 km, 47.2° (Epoch: 19 May)

Event Time Altitude Azimuth Distance (km) Brightness Sun altitude
Rises 21:04:58 0° 239° (WSW) 4,914 10.6 -4.7°
Reaches altitude 10° 21:08:14 10° 235° (SW) 3,915 10.0 -5.2°
Maximum altitude 21:17:51 55° 162° (SSE) 1,908 7.8 -6.4°
Drops below altitude 10° 21:27:10 10° 88° (E) 3,795 9.1 -7.6°
Sets 21:30:17 0° 85° (E) 4,755 9.6 -8.0°
